Back to catalog

CZ-3B DEB

AliveHEO
NORAD 42458·DEBRIS·🇨🇳 China

Launched Sep 4, 2010 from Xichang Satellite Launch Center

Loading…

Next Passes (next 24 hours)

TLE

FreshSource: Space-Track

Epoch: Sep 13, 2026, 20:59 UTC

1 42458U 10042Z   26256.87448042  .00000017  00000-0  19322-2 0  9995
2 42458  29.4803 229.7127 7512433 265.4787  14.2977  1.81318839 78080

Track CZ-3B DEB in real time with AllMySat

Download on the App Store